• In Hungary
  • List of Countries
  • For 7 days
  • Water Temperature
  • Satellite Maps
  • Weather Map
  • News
  • Weather Widgets
  • user-avatar
    Login

    Hourly Weather Louvain-la-Neuve

    Today, 18 February, Sunday

    Time Temperature Precipitation Wind Pressure Humidity
    00:00 -1°C° 0 mm 2 mps 759 mmHg 82%
    01:00 -1°C° 0 mm 2 mps 759 mmHg 83%
    02:00 -1°C° 0 mm 2 mps 759 mmHg 84%
    03:00 -1°C° 0 mm 2 mps 759 mmHg 85%
    04:00 -1°C° 0 mm 2 mps 759 mmHg 86%
    05:00 -1°C° 0 mm 2 mps 759 mmHg 87%
    06:00 -1°C° 0 mm 2 mps 759 mmHg 87%
    07:00 +1°C° 0 mm 2 mps 759 mmHg 83%
    08:00 +2°C° 0 mm 2 mps 759 mmHg 78%
    09:00 +3°C° 0 mm 2 mps 759 mmHg 74%
    10:00 +4°C° 0 mm 2 mps 759 mmHg 69%
    11:00 +6°C° 0 mm 2 mps 759 mmHg 64%
    12:00 +7°C° 0 mm 2 mps 759 mmHg 59%
    13:00 +7°C° 0 mm 2 mps 759 mmHg 58%
    14:00 +7°C° 0 mm 2 mps 758 mmHg 57%
    15:00 +7°C° 0 mm 2 mps 758 mmHg 56%
    16:00 +6°C° 0 mm 2 mps 758 mmHg 62%
    17:00 +4°C° 0 mm 2 mps 758 mmHg 68%
    18:00 +4°C° 0 mm 1 mps 758 mmHg 74%
    19:00 +2°C° 0 mm 2 mps 758 mmHg 75%
    20:00 +1°C° 0 mm 2 mps 758 mmHg 77%
    21:00 +1°C° 0 mm 2 mps 758 mmHg 78%
    22:00 +1°C° 0 mm 2 mps 758 mmHg 79%
    23:00 -1°C° 0 mm 2 mps 758 mmHg 79%

    Tomorrow, 19 February, Monday

    Time Temperature Precipitation Wind Pressure Humidity
    00:00 -1°C° 0 mm 2 mps 758 mmHg 79%
    01:00 -1°C° 0 mm 2 mps 758 mmHg 79%
    02:00 -1°C° 0 mm 2 mps 757 mmHg 80%
    03:00 -1°C° 0 mm 2 mps 757 mmHg 80%
    04:00 -2°C° 0 mm 2 mps 757 mmHg 80%
    05:00 0°C° 0 mm 1 mps 757 mmHg 79%
    06:00 0°C° 0 mm 1 mps 757 mmHg 79%
    07:00 +1°C° 0 mm 1 mps 757 mmHg 74%
    08:00 +3°C° 0 mm 1 mps 757 mmHg 69%
    09:00 +4°C° 0 mm 1 mps 757 mmHg 64%
    10:00 +5°C° 0 mm 1 mps 757 mmHg 59%
    11:00 +6°C° 0 mm 1 mps 756 mmHg 54%
    12:00 +8°C° 0 mm 1 mps 756 mmHg 49%
    13:00 +8°C° 0 mm 1 mps 756 mmHg 49%
    14:00 +8°C° 0 mm 1 mps 755 mmHg 49%
    15:00 +8°C° 0 mm 1 mps 755 mmHg 48%
    16:00 +7°C° 0 mm 1 mps 755 mmHg 53%
    17:00 +6°C° 0 mm 1 mps 755 mmHg 58%
    18:00 +5°C° 0 mm 1 mps 755 mmHg 62%
    19:00 +5°C° 0.1 mm 1 mps 755 mmHg 64%
    20:00 +5°C° 0.1 mm 1 mps 754 mmHg 66%
    21:00 +4°C° 0.1 mm 2 mps 754 mmHg 68%
    22:00 +3°C° 0.3 mm 2 mps 754 mmHg 70%
    23:00 +3°C° 0.3 mm 2 mps 753 mmHg 73%

    Day after tomorrow, 20 February, Tuesday

    Time Temperature Precipitation Wind Pressure Humidity
    00:00 +2°C° 0.3 mm 3 mps 753 mmHg 75%
    01:00 +2°C° 0.6 mm 3 mps 753 mmHg 77%
    02:00 +2°C° 0.6 mm 3 mps 752 mmHg 78%
    03:00 +2°C° 0.6 mm 3 mps 752 mmHg 79%
    04:00 +2°C° 0.4 mm 3 mps 752 mmHg 82%
    05:00 +2°C° 0.4 mm 3 mps 751 mmHg 84%
    06:00 +1°C° 0.4 mm 3 mps 751 mmHg 86%
    07:00 +2°C° 0 mm 3 mps 752 mmHg 85%
    08:00 +2°C° 0 mm 3 mps 752 mmHg 84%
    09:00 +2°C° 0 mm 3 mps 752 mmHg 84%
    10:00 +4°C° 0 mm 2 mps 752 mmHg 81%
    11:00 +6°C° 0 mm 1 mps 753 mmHg 78%
    12:00 +7°C° 0 mm 1 mps 753 mmHg 75%
    13:00 +7°C° 0 mm 1 mps 753 mmHg 76%
    14:00 +6°C° 0 mm 2 mps 753 mmHg 78%
    15:00 +6°C° 0 mm 2 mps 753 mmHg 79%
    16:00 +5°C° 0 mm 2 mps 754 mmHg 82%
    17:00 +4°C° 0 mm 2 mps 754 mmHg 85%
    18:00 +4°C° 0 mm 2 mps 755 mmHg 88%
    19:00 +3°C° 0 mm 2 mps 755 mmHg 89%
    20:00 +3°C° 0 mm 2 mps 755 mmHg 90%
    21:00 +2°C° 0 mm 2 mps 756 mmHg 90%
    22:00 +2°C° 0 mm 2 mps 756 mmHg 91%
    23:00 +1°C° 0 mm 2 mps 757 mmHg 92%

    21 February, Wednesday

    Time Temperature Precipitation Wind Pressure Humidity
    00:00 +1°C° 0 mm 2 mps 757 mmHg 93%
    01:00 -1°C° 0 mm 2 mps 757 mmHg 94%
    02:00 -1°C° 0 mm 2 mps 757 mmHg 94%
    03:00 -2°C° 0 mm 3 mps 757 mmHg 95%
    04:00 -2°C° 0 mm 2 mps 757 mmHg 94%
    05:00 -2°C° 0 mm 2 mps 758 mmHg 94%
    06:00 -2°C° 0 mm 2 mps 758 mmHg 93%
    07:00 -2°C° 0 mm 3 mps 758 mmHg 88%
    08:00 -1°C° 0 mm 3 mps 758 mmHg 83%
    09:00 0°C° 0 mm 3 mps 758 mmHg 77%
    10:00 0°C° 0 mm 4 mps 758 mmHg 72%
    11:00 +3°C° 0 mm 4 mps 758 mmHg 66%
    12:00 +4°C° 0 mm 4 mps 758 mmHg 60%
    13:00 +4°C° 0 mm 4 mps 757 mmHg 60%
    14:00 +4°C° 0 mm 4 mps 757 mmHg 60%
    15:00 +3°C° 0 mm 5 mps 756 mmHg 59%
    16:00 +3°C° 0 mm 4 mps 756 mmHg 65%
    17:00 0°C° 0 mm 4 mps 756 mmHg 70%
    18:00 0°C° 0 mm 3 mps 756 mmHg 76%
    19:00 0°C° 0 mm 3 mps 757 mmHg 78%
    20:00 -1°C° 0 mm 3 mps 757 mmHg 81%
    21:00 -1°C° 0 mm 3 mps 757 mmHg 83%
    22:00 -2°C° 0 mm 3 mps 757 mmHg 85%
    23:00 -2°C° 0 mm 3 mps 756 mmHg 87%

    22 February, Thursday

    Time Temperature Precipitation Wind Pressure Humidity
    00:00 -2°C° 0 mm 3 mps 756 mmHg 89%
    01:00 -4°C° 0 mm 3 mps 756 mmHg 89%
    02:00 -4°C° 0 mm 3 mps 756 mmHg 90%
    03:00 -4°C° 0 mm 3 mps 755 mmHg 90%
    04:00 -4°C° 0 mm 3 mps 755 mmHg 89%
    05:00 -4°C° 0 mm 3 mps 755 mmHg 87%
    06:00 -4°C° 0 mm 4 mps 755 mmHg 85%
    07:00 -3°C° 0 mm 4 mps 755 mmHg 78%
    08:00 -2°C° 0 mm 5 mps 755 mmHg 71%
    09:00 -3°C° 0 mm 6 mps 755 mmHg 63%
    10:00 -2°C° 0 mm 6 mps 754 mmHg 57%
    11:00 -1°C° 0 mm 6 mps 754 mmHg 52%
    12:00 0°C° 0 mm 7 mps 754 mmHg 46%
    13:00 0°C° 0 mm 7 mps 753 mmHg 46%
    14:00 0°C° 0 mm 7 mps 753 mmHg 45%
    15:00 0°C° 0 mm 7 mps 753 mmHg 45%
    16:00 -1°C° 0 mm 6 mps 753 mmHg 49%
    17:00 -2°C° 0 mm 6 mps 753 mmHg 54%
    18:00 -2°C° 0 mm 5 mps 753 mmHg 58%
    19:00 -4°C° 0 mm 5 mps 754 mmHg 61%
    20:00 -4°C° 0 mm 5 mps 754 mmHg 63%
    21:00 -4°C° 0 mm 5 mps 754 mmHg 65%
    22:00 -5°C° 0 mm 5 mps 754 mmHg 66%
    23:00 -5°C° 0 mm 5 mps 754 mmHg 68%

    23 February, Friday

    Time Temperature Precipitation Wind Pressure Humidity
    00:00 -5°C° 0 mm 5 mps 754 mmHg 69%
    01:00 -5°C° 0 mm 5 mps 754 mmHg 69%
    02:00 -5°C° 0 mm 5 mps 754 mmHg 69%
    03:00 -6°C° 0 mm 5 mps 754 mmHg 70%
    04:00 -6°C° 0 mm 5 mps 754 mmHg 70%
    05:00 -6°C° 0 mm 5 mps 754 mmHg 70%
    06:00 -6°C° 0 mm 5 mps 754 mmHg 70%
    07:00 -5°C° 0 mm 6 mps 754 mmHg 65%
    08:00 -4°C° 0 mm 6 mps 755 mmHg 61%
    09:00 -4°C° 0 mm 6 mps 755 mmHg 57%
    10:00 -3°C° 0 mm 6 mps 755 mmHg 53%
    11:00 -2°C° 0 mm 6 mps 755 mmHg 49%
    12:00 -1°C° 0 mm 6 mps 755 mmHg 45%
    13:00 +1°C° 0 mm 6 mps 755 mmHg 46%
    14:00 +1°C° 0 mm 6 mps 755 mmHg 46%
    15:00 +1°C° 0 mm 6 mps 754 mmHg 47%
    16:00 -2°C° 0 mm 6 mps 755 mmHg 53%
    17:00 -2°C° 0 mm 5 mps 755 mmHg 58%
    18:00 -4°C° 0 mm 5 mps 755 mmHg 64%
    19:00 -5°C° 0 mm 5 mps 756 mmHg 64%
    20:00 -5°C° 0 mm 5 mps 756 mmHg 64%
    21:00 -5°C° 0 mm 5 mps 757 mmHg 64%
    22:00 -6°C° 0 mm 5 mps 757 mmHg 62%
    23:00 -6°C° 0 mm 5 mps 757 mmHg 59%
    Show more